[[{"header":{"parameterUnit":"m.s-1","parameterCategory":1,"la1":30.2991,"la2":30.254,"lo1":-89.0895,"lo2":-89.0444,"dy":0.0017,"dx":0.0017,"nx":28,"ny":28,"refTime":"2025-03-19T03:00:00:Z","depth":0,"parameterNumber":2,"parameterNumberName":"U-component_of_WINDS"},"data":[0,0,0,0,0,0,0,0,0,0,0,0,0,0,0,0,0,0,0,0,0,0,0,0,0,0,0,0,0,0,0,0,0,0,0,0,0,0,0,0,0,0,0,0,0,0,0,0,0,0,0,0,0,0,0,0,0,0,5.3263,5.3263,0,5.3303,5.3303,5.3303,5.3249,5.3247,5.3245,5.3243,5.3286,5.3289,5.3292,0,0,0,0,0,0,0,0,0,0,0,0,0,5.3143,5.3146,5.3263,5.3263,5.3264,5.3303,5.3303,5.3304,5.3249,5.3247,5.3245,5.3242,5.3285,5.3288,5.3292,0,0,0,0,0,0,0,0,0,0,0,0,0,5.319,5.3146,5.3263,5.3241,5.324,5.3302,5.3303,5.3304,5.325,5.3247,5.3244,5.3241,5.3284,5.3288,5.3293,5.3378,0,0,5.3306,5.3308,0,0,0,0,0,0,0,0,5.3188,5.3195,5.3244,5.3243,5.3241,5.3268,5.3276,5.3329,5.3251,5.3246,5.3243,5.324,5.3282,5.3287,5.3301,5.338,5.3382,5.3306,5.3309,5.3311,5.3312,0,0,0,0,0,0,0,5.3185,5.3193,5.3279,5.3245,5.3243,5.3231,5.3234,5.3286,5.328,5.3246,5.3242,5.3248,5.3281,5.3297,5.3301,5.3383,5.3306,5.331,5.3313,5.3315,5.3536,5.3539,0,0,0,0,0,0,5.3183,5.319,5.3277,5.328,5.3207,5.3235,5.3239,5.3262,5.328,5.3279,5.325,5.3245,5.329,5.3296,5.3303,5.3404,5.3311,5.3315,5.3318,5.3533,5.3537,5.354,0,0,0,0,0,0,5.3181,5.3192,5.3276,5.3234,5.3244,5.3241,5.3267,5.3265,5.328,5.3282,5.3281,5.3267,5.3288,5.3296,5.336,5.3405,5.3317,5.3321,5.3529,5.3534,5.3539,5.3608,0,0,0,0,0,0,5.3178,5.3191,5.3223,5.3235,5.3246,5.3332,5.327,5.3268,5.3287,5.3281,5.3298,5.3298,5.3287,5.3354,5.3364,5.3409,5.3325,5.3525,5.3531,5.3537,5.3602,5.3615,5.3626,0,0,0,0,0,5.3174,5.3241,5.3225,5.3236,5.3286,5.3334,5.3341,5.3326,5.3291,5.3324,5.3326,5.3297,5.3399,5.3361,5.3372,5.3419,5.3522,5.353,5.3537,5.3596,5.3612,5.3626,0,0,0,0,0,0,5.3234,5.3242,5.3224,5.3297,5.3316,5.3325,5.3365,5.3343,5.3372,5.3365,5.3346,5.3351,5.3419,5.3426,5.3383,5.3504,5.3455,5.3465,5.3496,5.3511,5.3523,5.3519,5.3328,0,0,0,0,0,5.3256,5.3294,5.33,5.3364,5.3374,5.3368,5.3389,5.3376,5.3394,5.3402,5.3408,5.3428,5.3464,5.3489,5.3522,5.3604,5.3606,5.3642,5.3654,5.3664,5.3672,5.3716,5.3731,5.3564,5.3564,5.3564,0,0,5.3301,5.3311,5.3336,5.3376,5.3389,5.3429,5.3375,5.342,5.345,5.3409,5.3469,5.3475,5.3496,5.3569,5.3601,5.3577,5.3719,5.3673,5.3681,5.3684,5.3725,5.3741,5.3755,5.3569,5.3568,5.3567,0,0,5.3404,5.3415,5.347,5.3484,5.3504,5.35,5.3514,5.3527,5.3529,5.3589,5.3559,5.3596,5.3659,5.3675,5.3691,5.3803,5.3778,5.3815,5.3877,5.392,5.3933,5.3945,5.3984,5.3999,5.3824,5.3824,5.3824,0,5.3458,5.3517,5.3501,5.3548,5.3567,5.3532,5.3588,5.3603,5.3633,5.3647,5.362,5.3699,5.371,5.3786,5.3814,5.3829,5.3844,5.3812,5.3933,5.3944,5.3955,5.3992,5.4007,5.3828,5.3828,5.3827,5.3827,0,5.3582,5.3624,5.3666,5.3696,5.372,5.3771,5.3764,5.379,5.3777,5.3776,5.3839,5.3852,5.3887,5.3905,5.3892,5.398,5.3964,5.3936,5.3885,5.3975,5.401,5.4024,5.3834,5.3833,5.3832,5.3831,0,0,5.3721,5.3743,5.3759,5.3772,5.3793,5.3825,5.3876,5.3911,5.3934,5.3957,5.3999,5.4054,5.4028,5.4046,5.4035,5.4074,5.4161,5.404,5.404,5.4061,5.4259,5.4279,5.4296,5.4146,5.4148,5.4151,5.4257,0,5.3824,5.391,5.3898,5.3981,5.402,5.3989,5.4033,5.4052,5.4054,5.4087,5.409,5.4129,5.4091,5.4102,5.4139,5.4143,5.42,5.4135,5.4185,5.4187,5.4178,5.4314,5.4336,5.4435,5.427,5.4273,5.4274,0,5.3953,5.3981,5.4068,5.4083,5.4099,5.4139,5.417,5.4203,5.4224,5.4223,5.4245,5.4228,5.428,5.4231,5.4303,5.4258,5.4279,5.4284,5.4288,5.429,5.4234,5.4319,5.4466,5.448,5.4296,5.4294,5.4292,0,5.4045,5.4104,5.4164,5.4176,5.4196,5.4225,5.4235,5.4253,5.4275,5.4303,5.4318,5.4352,5.4371,5.4398,5.4391,5.4356,5.4465,5.4415,5.4465,5.4465,5.4487,5.4485,5.4638,5.4504,5.4503,5.4503,5.4503,0,5.4159,5.4213,5.4205,5.4242,5.4302,5.4289,5.435,5.4356,5.4373,5.4411,5.4387,5.4424,5.4413,5.445,5.4445,5.4505,5.4514,5.4514,5.4512,5.4515,5.4515,5.4527,5.4519,5.4507,5.4506,5.4505,5.4505,0,5.427,5.4267,5.433,5.4344,5.4349,5.4393,5.4406,5.4441,5.4442,5.4491,5.4501,5.4503,5.4545,5.4541,5.4588,5.4585,5.4659,5.465,5.4652,5.4649,5.4699,5.4693,5.4862,5.4884,5.4737,5.4739,5.474,0,5.4342,5.4383,5.4402,5.4425,5.4437,5.4476,5.4498,5.4488,5.4513,5.4541,5.4573,5.4612,5.4643,5.4712,5.4718,5.4754,5.4744,5.4801,5.4749,5.4751,5.4743,5.474,5.4744,5.481,5.4812,5.4813,5.4814,0,5.4469,5.4466,5.4499,5.4532,5.456,5.4586,5.4609,5.463,5.4623,5.4652,5.4694,5.4718,5.4767,5.4807,5.4841,5.4853,5.4833,5.4831,5.4844,5.4847,5.4846,5.4846,5.4677,5.4827,5.4825,5.4825,5.4824,5.4823,5.4562,5.4597,5.4616,5.4654,5.4671,5.4694,5.4727,5.4733,5.4768,5.4806,5.4799,5.4846,5.4868,5.4913,5.4928,5.4965,5.4945,5.4964,5.4969,5.4973,5.4978,5.4842,5.4972,5.4971,5.4971,5.4971,5.4971,0,5.4687,5.4698,5.4733,5.4767,5.4797,5.4777,5.4802,5.4829,5.4871,5.4892,5.4924,5.4973,5.5012,5.5022,5.5059,5.5088,5.5079,5.5098,5.5094,5.5097,5.4995,5.4979,5.5104,5.5104,5.5104,5.5104,5.5104,5.5104,5.4755,5.4813,5.4813,5.488,5.4892,5.4937,5.4954,5.4975,5.4992,5.5048,5.508,5.5086,5.5104,5.5143,5.5178,5.518,5.5194,5.5216,5.5214,5.5118,5.5104,5.5092,5.5076,5.522,5.522,5.5313,5.5314,5.5315]},{"header":{"parameterUnit":"m.s-1","parameterCategory":1,"la1":30.2991,"la2":30.254,"lo1":-89.0895,"lo2":-89.0444,"dy":0.0017,"dx":0.0017,"nx":28,"ny":28,"refTime":"2025-03-19T03:00:00:Z","depth":0,"parameterNumber":3,"parameterNumberName":"V-component_of_WINDS"},"data":[0,0,0,0,0,0,0,0,0,0,0,0,0,0,0,0,0,0,0,0,0,0,0,0,0,0,0,0,0,0,0,0,0,0,0,0,0,0,0,0,0,0,0,0,0,0,0,0,0,0,0,0,0,0,0,0,0,0,2.2445,2.2447,0,2.2611,2.2613,2.2615,2.2656,2.2655,2.2654,2.2653,2.2825,2.2831,2.2836,0,0,0,0,0,0,0,0,0,0,0,0,0,2.2165,2.217,2.2445,2.2447,2.2449,2.2611,2.2613,2.2615,2.2656,2.2655,2.2654,2.2652,2.2823,2.283,2.2837,0,0,0,0,0,0,0,0,0,0,0,0,0,2.2304,2.2171,2.2444,2.2489,2.2494,2.261,2.2613,2.2616,2.2656,2.2655,2.2653,2.2652,2.2821,2.2829,2.2838,2.2922,0,0,2.2863,2.2867,0,0,0,0,0,0,0,0,2.2296,2.2315,2.248,2.2486,2.2492,2.2611,2.2578,2.2719,2.2657,2.2595,2.2653,2.2651,2.2755,2.2769,2.2804,2.293,2.2938,2.2864,2.2869,2.2873,2.2875,0,0,0,0,0,0,0,2.2287,2.2308,2.2511,2.2482,2.249,2.2501,2.2519,2.2605,2.2682,2.26,2.2604,2.2623,2.2758,2.2796,2.2808,2.294,2.2864,2.2871,2.2876,2.288,2.3145,2.3147,0,0,0,0,0,0,2.2269,2.2299,2.2505,2.2516,2.2388,2.2507,2.2528,2.2575,2.2682,2.2696,2.2624,2.2624,2.2782,2.2798,2.2815,2.2921,2.2873,2.2881,2.2885,2.3143,2.3146,2.3148,0,0,0,0,0,0,2.2263,2.2287,2.2499,2.2409,2.2436,2.2514,2.2567,2.2579,2.2616,2.2699,2.2714,2.2647,2.2782,2.2803,2.2895,2.2928,2.2884,2.2892,2.3141,2.3144,2.3147,2.3135,0,0,0,0,0,0,2.2255,2.2285,2.2317,2.2409,2.2441,2.2576,2.2569,2.2583,2.263,2.2632,2.2725,2.2739,2.2782,2.2882,2.2903,2.2939,2.2899,2.3138,2.3142,2.3146,2.3132,2.3137,2.3141,0,0,0,0,0,2.2244,2.2307,2.2318,2.2343,2.2483,2.2577,2.2596,2.2643,2.2633,2.2666,2.272,2.2736,2.2921,2.2891,2.2916,2.2954,2.3136,2.3141,2.3145,2.3131,2.3136,2.314,0,0,0,0,0,0,2.2217,2.232,2.2333,2.2427,2.2493,2.2584,2.2628,2.2647,2.2718,2.2717,2.2773,2.2794,2.2882,2.2927,2.2893,2.3042,2.3029,2.3038,2.3009,2.3015,2.3019,2.3006,2.2906,0,0,0,0,0,2.2222,2.229,2.2376,2.2451,2.2483,2.255,2.2593,2.2623,2.2694,2.2722,2.2783,2.2851,2.2925,2.2972,2.3045,2.3139,2.3161,2.3177,2.3181,2.3184,2.3192,2.3246,2.3255,2.3163,2.3163,2.3162,0,0,2.2233,2.2297,2.2337,2.2447,2.2502,2.2571,2.2573,2.2646,2.2699,2.2734,2.2825,2.2871,2.2952,2.3046,2.309,2.3086,2.3222,2.319,2.3192,2.3198,2.3252,2.326,2.3268,2.3166,2.3165,2.3165,0,0,2.2288,2.2343,2.2412,2.2467,2.2549,2.2594,2.261,2.2698,2.273,2.2822,2.285,2.2914,2.3039,2.3096,2.3141,2.3218,2.3236,2.324,2.3262,2.3314,2.3321,2.3328,2.3356,2.3365,2.3248,2.3248,2.3248,0,2.2291,2.2397,2.2445,2.2517,2.2565,2.26,2.267,2.2721,2.2824,2.2856,2.285,2.3008,2.3065,2.3173,2.3192,2.3227,2.3248,2.323,2.3316,2.3323,2.333,2.3358,2.3368,2.3247,2.3247,2.3248,2.3248,0,2.2397,2.247,2.2515,2.2613,2.2666,2.2737,2.2797,2.2845,2.2871,2.2916,2.301,2.3079,2.3166,2.3194,2.322,2.3306,2.3301,2.3304,2.3293,2.3338,2.3365,2.3376,2.3247,2.3247,2.3247,2.3247,0,0,2.244,2.2563,2.2579,2.2624,2.2718,2.2776,2.2849,2.2933,2.2974,2.3043,2.3107,2.3212,2.3216,2.3267,2.33,2.3346,2.3404,2.3344,2.3347,2.3353,2.3504,2.35,2.3512,2.3416,2.3418,2.342,2.3497,0,2.2507,2.2638,2.2684,2.2792,2.2861,2.2895,2.2958,2.3023,2.3067,2.3133,2.3182,2.3256,2.3255,2.3286,2.3333,2.3387,2.3435,2.3382,2.3476,2.3479,2.3455,2.3526,2.3523,2.3592,2.3508,2.351,2.3511,0,2.2603,2.2673,2.2788,2.2875,2.2905,2.2961,2.3043,2.3105,2.3179,2.3208,2.3266,2.3296,2.3374,2.3357,2.3467,2.343,2.3471,2.3504,2.3508,2.3519,2.3498,2.3539,2.3615,2.3626,2.3528,2.3526,2.3525,0,2.2623,2.2747,2.2832,2.2869,2.2972,2.3011,2.3055,2.3129,2.3177,2.3249,2.3281,2.3361,2.3405,2.3466,2.3517,2.35,2.3623,2.361,2.365,2.3648,2.3674,2.3672,2.3758,2.37,2.37,2.37,2.3699,0,2.2694,2.2763,2.2842,2.2895,2.2974,2.3026,2.3103,2.315,2.3215,2.3278,2.3312,2.337,2.3434,2.3501,2.3542,2.3627,2.3646,2.3672,2.3682,2.367,2.3666,2.3698,2.3694,2.3702,2.3702,2.3701,2.3701,0,2.2729,2.2785,2.288,2.297,2.2994,2.3048,2.3125,2.3178,2.3223,2.3302,2.3324,2.3396,2.3477,2.3534,2.3637,2.3665,2.3756,2.3766,2.3731,2.3736,2.3773,2.3769,2.3883,2.3901,2.383,2.383,2.3831,0,2.2771,2.2825,2.292,2.2964,2.3009,2.308,2.3129,2.3183,2.3234,2.3323,2.3365,2.3448,2.3517,2.3644,2.3706,2.3786,2.3798,2.3833,2.381,2.3796,2.3799,2.3796,2.3802,2.3836,2.3836,2.3837,2.3837,0,2.2838,2.2864,2.2933,2.3013,2.3071,2.3136,2.3202,2.3237,2.3303,2.3358,2.344,2.3494,2.36,2.3682,2.3768,2.3815,2.3838,2.3844,2.3857,2.3845,2.3822,2.3836,2.374,2.3841,2.3841,2.384,2.384,2.384,2.2879,2.2929,2.3004,2.308,2.3136,2.3197,2.3251,2.3303,2.3373,2.3463,2.3491,2.3577,2.3652,2.3769,2.3817,2.3886,2.3884,2.3903,2.3908,2.3912,2.3912,2.3811,2.3902,2.3902,2.3901,2.3901,2.3901,0,2.2949,2.2999,2.3069,2.316,2.3221,2.3236,2.331,2.336,2.3435,2.3502,2.357,2.3665,2.3745,2.3813,2.3896,2.3938,2.3951,2.3958,2.3956,2.3966,2.3909,2.3889,2.3947,2.3947,2.3947,2.3947,2.3947,2.3946,2.2992,2.3077,2.3112,2.3225,2.3275,2.3359,2.34,2.3457,2.3511,2.3616,2.3683,2.3726,2.3795,2.3883,2.3958,2.3976,2.4005,2.401,2.4031,2.3976,2.397,2.3965,2.3947,2.4016,2.4016,2.4083,2.4083,2.4084]}]]